Info: BCA OFFLINE..BNI BRI CIMBNIAGA MANDIRI ONLINE | HARAP SELALU MELIHAT REKENING AKTIF DI MENU DEPOSIT SEBELUM TRANSFER DANA..LINK ALTERNATIF http:/kitasatu88.asia/
REGISTER JACKPOT DEPOSIT REFERRAL DOWNLOAD PROMOSI CONTACT VIP
JACKPOT



   

Jackpot Winner Texas Poker
Kini Telah hadir Jackpot SUPER ROYAL FLUSH
Kini Telah hadir Jackpot 2000 (khusus table VIP keatas).

Ikutilah global jackpot yang tersedia di system kami, dengan system jackpot terbaru dan pertama di indonesia, anda dapat membeli jackpot dengan harga 100 rupiah saja dan menangkan hadiahnya hingga puluhan juta rupiah.

Jackpot bukanlah suatu keharusan untuk dibeli, namun kami memberikan suatu fitur tambahan untuk member tercinta dari www.cintapk88.asia.

Terdapat tiga pilihan harga jackpot yang bisa anda beli yaitu :100,500,1000 dan 2000(khusus table VIP Keatas) rupiah.

Hadiah dari Multi jackpot system www.cintapk88.asia

  1. full house x 10 harga jackpot yang anda beli.
      (contoH:anda membeli 1000 maka:1000 X10 = 10.000)
  2. four of kind x 250 harga jackpot yang anda beli
      (contoH:anda membeli 1000 maka:1000 X250 = 250.000)
  3. Straight flush x 1200
      (contoH:anda membeli 1000 maka:1000 X1200 = 1.200.000)
  4. Royal flush x 10000 harga jackpot yang anda beli
      (contoH:anda membeli 1000 maka:1000 X10000 = 10.000.000)
  5. SUPER ROYAL FLUSH x 30000 harga jackpot yang anda beli
      (contoH:anda membeli 1000 maka:1000 X30000 = 30.000.000)

Kondisi kartu

  1. full house adalah kondisi kartu dimana kartu anda dan kartu tengah dengan total 7 kartu bisa mendapatkan nilai 5 kartu dengan kombinasi 1 tris(three of kind) dan 1 pair, contoh 3 kartu 10 dan 2 kartu 5
  2. Four of kind adalah kondisi kartu dimana kartu anda dan kartu tengah dengan total 7 kartu bisa mendapatkan nilai 5 kartu dengan kombinasi 4 kartu yang sama jumlah dan 1 kartu apapun juga contoh anda mendapatkan 4 buah kartu angka 3 dan 1 kartu apapun.
  3. Straight flush adalah kondisi kartu dimana kartu anda dan kartu tengah dengan total 7 kartu bisa mendapatkan nilai 5 kartu dengan kombinasi seri / staright dengan kembang yang sama contoh : urutan kartu dari angka 5, 6, 7, 8 , 9 10 dengan kembang yg sama misalnya as hati
  4. Royal flush adalah kondisi kartu dimana kartu anda dan kartu tengah dengan total 7 kartu bisa mendapatkan nilai 5 kartu dengan kombinasi seri / staright dengan kembang yang sama tetapi kartu tersebut haruslah dimulai dari 10. contoh 10, Queen, Jack, King dan aces dengan kembang yang sama
  5. Super Royal flush adalah kondisi kartu dimana Kedua kartu anda digabung dengan 3 kartu pertama meja haruslah royal flush. contoh kartu anda10,Queen dan 3 kartu pertama meja adalah Jack, King dan aces dengan kembang yang sama

Demikian adalah penjelasan dari Multi Jackpot www.cintapk88.asia terima kasih dan selamat bermain salam hoki dari kami


Jackpot Winner

TOP SUPER ROYAL FLUSH
No. Tanggal Nama Price Win
1 21/02 19:29 CURUT54 Super Royal flush 30,000,000
2 21/02 13:39 COPL8 Super Royal flush 30,000,000
3 21/02 11:39 ZHOLAM999 Super Royal flush 3,000,000
4 21/02 10:56 WTPKXJS8OC Super Royal flush 15,000,000
5 21/02 08:58 KEKE2013 Super Royal flush 3,000,000
TOP ROYAL FLUSH
No. Tanggal Nama Price Win
1 21/02 21:30 BULUX7755 Royal flush 2,000,000
2 21/02 21:19 LHN6R654BC Royal flush 5,000,000
3 21/02 20:59 ZFDCIIAY7Y Royal flush 2,000,000
4 21/02 20:54 ECAD031B Royal flush 2,000,000
5 21/02 20:43 SITABAH Royal flush 20,000,000
TOP STRAIGHT FLUSH
No. Tanggal Nama Price Win
1 21/02 21:35 HEIM Straight Flush 120,000
2 21/02 21:34 JAVI666 Straight Flush 600,000
3 21/02 21:33 EXSIMER787 Straight Flush 240,000
4 21/02 21:30 BUDI_HOKI Straight Flush 240,000
5 21/02 21:30 ZANJIWD Straight Flush 1,200,000
LATEST JACKPOT
No. Tanggal Nama Price Win
1 21/02 21:38 SUPERHOTAA Full House 5,000
2 21/02 21:38 EXAMPL3420 Full House 2,000
3 21/02 21:38 LURAHBINAL Full House 500
4 21/02 21:37 WJ0QA7I3MH Full House 5,000
5 21/02 21:37 RUDIN_ Full House 1,000
6 21/02 21:37 SHOAKH0RIN Full House 1,000
7 21/02 21:37 SIAMPAGURU Full House 10,000
8 21/02 21:37 SENSSEI17 Full House 2,000
9 21/02 21:37 GODHAND10 Full House 1,000
10 21/02 21:37 BOLANKZ Full House 2,000
11 21/02 21:37 PKB212 Full House 5,000
12 21/02 21:37 RTJODA76 Full House 5,000
13 21/02 21:37 DOLY73 Full House 20,000
14 21/02 21:37 BATOTO33 Full House 500
15 21/02 21:37 TIL01 Full House 1,000
16 21/02 21:37 R4NGERXXX Full House 1,000
17 21/02 21:37 CIYIN88 Full House 5,000
18 21/02 21:37 TOMOKNG Full House 2,000
19 21/02 21:37 KALAPASS Full House 2,000
20 21/02 21:37 FWM8M133N7 Full House 2,000
21 21/02 21:37 JUMP1987 Full House 5,000
22 21/02 21:37 TKINCIT Full House 2,000
23 21/02 21:37 KOALISIKK Full House 10,000
24 21/02 21:37 XIN1ITTHOI Full House 10,000
25 21/02 21:37 SOMSE88 Full House 2,000
26 21/02 21:37 TBK113 Full House 1,000
27 21/02 21:37 PORKRIBO Full House 1,000
28 21/02 21:37 BILLYNOE Full House 2,000
29 21/02 21:37 OPO007 Full House 5,000
30 21/02 21:37 PEUWEX16 Full House 2,000
31 21/02 21:37 AR16071983 Full House 10,000
32 21/02 21:37 TEMPA4T99 Full House 5,000
33 21/02 21:37 HKOYOY13 Full House 5,000
34 21/02 21:37 YUDO021 Full House 1,000
35 21/02 21:37 RT1981 Four Of A Kind 125,000
36 21/02 21:37 SELANJUTAN Full House 1,000
37 21/02 21:37 E582B202 Full House 5,000
38 21/02 21:37 SHAKA24 Full House 10,000
39 21/02 21:37 LEYNARDZ11 Full House 10,000
40 21/02 21:37 SIMUJUR22 Full House 2,000
41 21/02 21:37 RQHEE Full House 2,000
42 21/02 21:37 SELU7979 Full House 2,000
43 21/02 21:37 AALNAA0257 Full House 5,000
44 21/02 21:37 OKBROO Full House 2,000
45 21/02 21:37 MISTAR Full House 5,000
46 21/02 21:37 GASTU Full House 5,000
47 21/02 21:37 NER2016WIN Full House 10,000
48 21/02 21:37 AGUNGOYOTT Four Of A Kind 125,000
49 21/02 21:37 BEBAS348 Full House 5,000
50 21/02 21:37 DURASI12 Full House 1,000
Dewa.FM